JAS-2 (FO-29)

Last updated on Thu Oct 30 2025 00:03:10 GMT+0000 (Coordinated Universal Time)

1 24278U 96046B 25302.26436119 .00000001 00000+0 39113-4 0 9993 2 24278 98.5506 177.3593 0349595 335.5827 22.9091 13.53258554441936
UTC large
Height (km)
Speed (km/s)
/
Latitude / Longitude
Inclination (degrees)
Orbital Period (minutes)
Azimuth
Elevation
Range (km)
Doppler Factor

Next 0 passes for location: London (51.5072 / 0.1276)

Sorry there are no passes over London.